Time,TemperatureF,DewpointF,PressureIn,WindDirection,WindDirectionDegrees,WindSpeedMPH,WindSpeedGustMPH,Humidity,HourlyPrecipIn,Conditions,Clouds,dailyrainin,SoftwareType,DateUTC
2013-04-27 00:02:00,30.2,28.0,30.45,NNE,12,0.0,0.0,92,0.00,,,0.00,weatherlink.com 1.10,2013-04-27 04:02:00,
2013-04-27 00:17:00,30.6,29.0,30.45,NNE,12,0.0,1.0,92,0.00,,,0.00,weatherlink.com 1.10,2013-04-27 04:17:00,
2013-04-27 00:32:00,30.2,28.0,30.45,NNE,12,0.0,2.0,92,0.00,,,0.00,weatherlink.com 1.10,2013-04-27 04:32:00,
2013-04-27 00:47:00,30.5,29.0,30.45,NNE,12,0.0,0.0,92,0.00,,,0.00,weatherlink.com 1.10,2013-04-27 04:47:00,
2013-04-27 01:02:00,30.2,29.0,30.45,NNE,12,0.0,0.0,93,0.00,,,0.00,weatherlink.com 1.10,2013-04-27 05:02:00,
2013-04-27 01:17:00,30.9,29.0,30.45,NNE,12,0.0,0.0,93,0.00,,,0.00,weatherlink.com 1.10,2013-04-27 05:17:00,
2013-04-27 01:32:00,29.8,28.0,30.45,NNE,12,0.0,0.0,93,0.00,,,0.00,weatherlink.com 1.10,2013-04-27 05:32:00,
2013-04-27 01:47:00,29.6,28.0,30.45,NNE,12,0.0,0.0,93,0.00,,,0.00,weatherlink.com 1.10,2013-04-27 05:47:00,
2013-04-27 02:02:00,30.2,29.0,30.45,NNE,12,0.0,0.0,94,0.00,,,0.00,weatherlink.com 1.10,2013-04-27 06:02:00,
2013-04-27 02:17:00,30.1,28.0,30.45,NNE,12,0.0,0.0,93,0.00,,,0.00,weatherlink.com 1.10,2013-04-27 06:17:00,
2013-04-27 02:32:00,29.6,28.0,30.45,NNE,12,0.0,0.0,93,0.00,,,0.00,weatherlink.com 1.10,2013-04-27 06:32:00,
2013-04-27 02:47:00,29.9,28.0,30.44,NNE,12,0.0,0.0,94,0.00,,,0.00,weatherlink.com 1.10,2013-04-27 06:47:00,
2013-04-27 03:02:00,30.5,29.0,30.44,NNE,12,0.0,0.0,94,0.00,,,0.00,weatherlink.com 1.10,2013-04-27 07:02:00,
2013-04-27 03:17:00,30.2,29.0,30.44,NNE,12,0.0,0.0,94,0.00,,,0.00,weatherlink.com 1.10,2013-04-27 07:17:00,
2013-04-27 03:32:00,29.4,28.0,30.44,NNE,12,0.0,0.0,94,0.00,,,0.00,weatherlink.com 1.10,2013-04-27 07:32:00,
2013-04-27 03:47:00,29.5,28.0,30.44,NNE,12,0.0,0.0,94,0.00,,,0.00,weatherlink.com 1.10,2013-04-27 07:47:00,
2013-04-27 04:02:00,29.2,28.0,30.44,NNE,12,0.0,0.0,94,0.00,,,0.00,weatherlink.com 1.10,2013-04-27 08:02:00,
2013-04-27 04:17:00,29.0,28.0,30.43,NNE,12,0.0,0.0,94,0.00,,,0.00,weatherlink.com 1.10,2013-04-27 08:17:00,
2013-04-27 04:32:00,28.6,27.0,30.43,NNE,12,0.0,0.0,94,0.00,,,0.00,weatherlink.com 1.10,2013-04-27 08:32:00,
2013-04-27 04:47:00,28.6,27.0,30.43,NNE,12,0.0,0.0,94,0.00,,,0.00,weatherlink.com 1.10,2013-04-27 08:47:00,
2013-04-27 05:02:00,28.4,27.0,30.43,NNE,12,0.0,0.0,94,0.00,,,0.00,weatherlink.com 1.10,2013-04-27 09:02:00,
2013-04-27 05:17:00,28.1,27.0,30.43,NNE,12,0.0,0.0,94,0.00,,,0.00,weatherlink.com 1.10,2013-04-27 09:17:00,
2013-04-27 05:32:00,28.4,27.0,30.43,NNE,12,0.0,0.0,94,0.00,,,0.00,weatherlink.com 1.10,2013-04-27 09:32:00,
2013-04-27 05:47:00,28.0,27.0,30.43,NNE,12,0.0,0.0,94,0.00,,,0.00,weatherlink.com 1.10,2013-04-27 09:47:00,
2013-04-27 06:02:00,27.9,26.0,30.43,NNE,12,0.0,0.0,94,0.00,,,0.00,weatherlink.com 1.10,2013-04-27 10:02:00,
2013-04-27 06:17:00,27.9,26.0,30.43,NNE,12,0.0,0.0,94,0.00,,,0.00,weatherlink.com 1.10,2013-04-27 10:17:00,
2013-04-27 06:32:00,29.5,28.0,30.43,NNE,12,0.0,0.0,94,0.00,,,0.00,weatherlink.com 1.10,2013-04-27 10:32:00,
2013-04-27 06:47:00,31.6,30.0,30.43,NNE,12,0.0,0.0,92,0.00,,,0.00,weatherlink.com 1.10,2013-04-27 10:47:00,
2013-04-27 07:02:00,31.0,29.0,30.43,NNE,12,0.0,0.0,92,0.00,,,0.00,weatherlink.com 1.10,2013-04-27 11:02:00,
2013-04-27 07:17:00,33.7,31.0,30.43,NNE,12,0.0,0.0,88,0.00,,,0.00,weatherlink.com 1.10,2013-04-27 11:17:00,
2013-04-27 07:33:00,34.9,32.0,30.44,NNE,12,0.0,1.0,88,0.00,,,0.00,weatherlink.com 1.10,2013-04-27 11:33:00,
2013-04-27 07:48:00,38.2,33.0,30.43,NNE,12,0.0,2.0,82,0.00,,,0.00,weatherlink.com 1.10,2013-04-27 11:48:00,
2013-04-27 08:03:00,38.9,33.0,30.43,NNE,12,0.0,1.0,80,0.00,,,0.00,weatherlink.com 1.10,2013-04-27 12:03:00,
2013-04-27 08:18:00,40.4,32.0,30.43,NE,46,4.0,4.0,73,0.00,,,0.00,weatherlink.com 1.10,2013-04-27 12:18:00,
2013-04-27 08:33:00,41.4,33.0,30.43,NNE,30,2.0,3.0,73,0.00,,,0.00,weatherlink.com 1.10,2013-04-27 12:33:00,
2013-04-27 08:48:00,42.5,32.0,30.43,NNE,24,4.0,7.0,67,0.00,,,0.00,weatherlink.com 1.10,2013-04-27 12:48:00,
2013-04-27 09:03:00,42.6,33.0,30.43,NNE,17,4.0,7.0,69,0.00,,,0.00,weatherlink.com 1.10,2013-04-27 13:03:00,
2013-04-27 09:18:00,43.0,33.0,30.43,NE,35,6.0,6.0,67,0.00,,,0.00,weatherlink.com 1.10,2013-04-27 13:18:00,
2013-04-27 09:33:00,44.4,32.0,30.43,NE,41,4.0,6.0,63,0.00,,,0.00,weatherlink.com 1.10,2013-04-27 13:33:00,
2013-04-27 10:03:00,44.1,33.0,30.43,ENE,59,5.0,7.0,64,0.00,,,0.00,weatherlink.com 1.10,2013-04-27 14:03:00,
2013-04-27 10:18:00,45.2,31.0,30.43,NE,55,2.0,4.0,58,0.00,,,0.00,weatherlink.com 1.10,2013-04-27 14:18:00,
2013-04-27 10:33:00,46.2,31.0,30.43,NE,49,2.0,8.0,56,0.00,,,0.00,weatherlink.com 1.10,2013-04-27 14:33:00,
2013-04-27 10:48:00,45.5,29.0,30.43,NNE,13,0.0,7.0,53,0.00,,,0.00,weatherlink.com 1.10,2013-04-27 14:48:00,
2013-04-27 11:03:00,45.4,30.0,30.43,East,80,1.0,5.0,55,0.00,,,0.00,weatherlink.com 1.10,2013-04-27 15:03:00,
2013-04-27 11:18:00,46.5,29.0,30.43,ENE,62,2.0,6.0,51,0.00,,,0.00,weatherlink.com 1.10,2013-04-27 15:18:00,
2013-04-27 11:33:00,50.5,31.0,30.43,WNW,295,3.0,11.0,47,0.00,,,0.00,weatherlink.com 1.10,2013-04-27 15:33:00,
2013-04-27 11:48:00,47.9,28.0,30.42,NNW,333,3.0,9.0,47,0.00,,,0.00,weatherlink.com 1.10,2013-04-27 15:48:00,
2013-04-27 12:03:00,48.8,30.0,30.41,NNW,330,1.0,5.0,48,0.00,,,0.00,weatherlink.com 1.10,2013-04-27 16:03:00,
2013-04-27 12:18:00,48.7,27.0,30.41,SE,146,3.0,4.0,44,0.00,,,0.00,weatherlink.com 1.10,2013-04-27 16:18:00,
2013-04-27 12:33:00,47.7,28.0,30.40,SE,138,2.0,4.0,46,0.00,,,0.00,weatherlink.com 1.10,2013-04-27 16:33:00,
2013-04-27 12:48:00,47.8,25.0,30.40,ENE,68,3.0,8.0,41,0.00,,,0.00,weatherlink.com 1.10,2013-04-27 16:48:00,
2013-04-27 13:03:00,49.4,25.0,30.39,East,88,1.0,5.0,39,0.00,,,0.00,weatherlink.com 1.10,2013-04-27 17:03:00,
2013-04-27 13:18:00,50.2,28.0,30.39,NNE,30,7.0,7.0,42,0.00,,,0.00,weatherlink.com 1.10,2013-04-27 17:18:00,
2013-04-27 13:33:00,50.5,28.0,30.38,NNE,20,2.0,6.0,42,0.00,,,0.00,weatherlink.com 1.10,2013-04-27 17:33:00,
2013-04-27 13:48:00,48.7,27.0,30.38,ESE,108,0.0,5.0,43,0.00,,,0.00,weatherlink.com 1.10,2013-04-27 17:48:00,
2013-04-27 14:03:00,50.0,28.0,30.38,NE,35,5.0,9.0,42,0.00,,,0.00,weatherlink.com 1.10,2013-04-27 18:03:00,
2013-04-27 14:18:00,49.7,27.0,30.37,East,81,0.0,6.0,42,0.00,,,0.00,weatherlink.com 1.10,2013-04-27 18:18:00,
2013-04-27 14:33:00,52.5,27.0,30.37,NE,51,4.0,8.0,38,0.00,,,0.00,weatherlink.com 1.10,2013-04-27 18:33:00,
2013-04-27 14:48:00,50.1,26.0,30.36,SE,144,4.0,10.0,40,0.00,,,0.00,weatherlink.com 1.10,2013-04-27 18:48:00,
2013-04-27 15:03:00,51.9,26.0,30.36,ENE,67,5.0,7.0,37,0.00,,,0.00,weatherlink.com 1.10,2013-04-27 19:03:00,
2013-04-27 15:18:00,51.1,25.0,30.35,East,82,3.0,7.0,37,0.00,,,0.00,weatherlink.com 1.10,2013-04-27 19:18:00,
2013-04-27 15:33:00,51.7,26.0,30.35,NNE,19,5.0,8.0,37,0.00,,,0.00,weatherlink.com 1.10,2013-04-27 19:33:00,
2013-04-27 15:49:00,52.4,27.0,30.34,North,355,4.0,9.0,37,0.00,,,0.00,weatherlink.com 1.10,2013-04-27 19:49:00,
2013-04-27 16:04:00,53.0,27.0,30.34,NW,319,0.0,12.0,36,0.00,,,0.00,weatherlink.com 1.10,2013-04-27 20:04:00,
2013-04-27 16:19:00,52.6,25.0,30.33,NNW,347,0.0,6.0,35,0.00,,,0.00,weatherlink.com 1.10,2013-04-27 20:19:00,
2013-04-27 16:34:00,53.1,27.0,30.33,NNW,333,0.0,7.0,36,0.00,,,0.00,weatherlink.com 1.10,2013-04-27 20:34:00,
2013-04-27 16:49:00,52.6,26.0,30.33,NW,319,2.0,7.0,36,0.00,,,0.00,weatherlink.com 1.10,2013-04-27 20:49:00,
2013-04-27 17:04:00,52.3,25.0,30.33,North,9,0.0,7.0,35,0.00,,,0.00,weatherlink.com 1.10,2013-04-27 21:04:00,
2013-04-27 17:19:00,52.6,26.0,30.32,NNW,343,4.0,8.0,36,0.00,,,0.00,weatherlink.com 1.10,2013-04-27 21:19:00,
2013-04-27 17:34:00,52.3,27.0,30.33,NNE,30,6.0,11.0,37,0.00,,,0.00,weatherlink.com 1.10,2013-04-27 21:34:00,
2013-04-27 17:49:00,51.8,26.0,30.32,NNE,24,8.0,8.0,37,0.00,,,0.00,weatherlink.com 1.10,2013-04-27 21:49:00,
2013-04-27 18:04:00,51.1,25.0,30.32,NE,55,5.0,10.0,37,0.00,,,0.00,weatherlink.com 1.10,2013-04-27 22:04:00,
2013-04-27 18:19:00,50.8,25.0,30.32,NE,36,6.0,8.0,37,0.00,,,0.00,weatherlink.com 1.10,2013-04-27 22:19:00,
2013-04-27 18:34:00,51.1,26.0,30.33,NNE,28,4.0,6.0,38,0.00,,,0.00,weatherlink.com 1.10,2013-04-27 22:34:00,
2013-04-27 18:49:00,50.6,26.0,30.33,North,5,0.0,4.0,38,0.00,,,0.00,weatherlink.com 1.10,2013-04-27 22:49:00,
2013-04-27 19:04:00,49.9,25.0,30.32,NNW,344,1.0,4.0,38,0.00,,,0.00,weatherlink.com 1.10,2013-04-27 23:04:00,
2013-04-27 19:19:00,49.4,25.0,30.33,NNW,335,0.0,3.0,38,0.00,,,0.00,weatherlink.com 1.10,2013-04-27 23:19:00,
2013-04-27 19:34:00,48.8,24.0,30.33,NNE,14,1.0,3.0,38,0.00,,,0.00,weatherlink.com 1.10,2013-04-27 23:34:00,
2013-04-27 19:49:00,47.7,24.0,30.33,NNE,14,0.0,3.0,39,0.00,,,0.00,weatherlink.com 1.10,2013-04-27 23:49:00,
2013-04-27 20:04:00,42.9,27.0,30.33,NNE,14,0.0,1.0,53,0.00,,,0.00,weatherlink.com 1.10,2013-04-28 00:04:00,
2013-04-27 20:19:00,42.2,26.0,30.33,NNE,14,0.0,0.0,53,0.00,,,0.00,weatherlink.com 1.10,2013-04-28 00:19:00,
2013-04-27 20:34:00,40.1,28.0,30.34,NNE,14,0.0,0.0,62,0.00,,,0.00,weatherlink.com 1.10,2013-04-28 00:34:00,
2013-04-27 20:49:00,38.8,28.0,30.34,NNE,14,0.0,0.0,65,0.00,,,0.00,weatherlink.com 1.10,2013-04-28 00:49:00,
2013-04-27 21:04:00,37.4,27.0,30.34,NNE,14,0.0,0.0,66,0.00,,,0.00,weatherlink.com 1.10,2013-04-28 01:04:00,
2013-04-27 21:19:00,36.6,28.0,30.34,NNE,14,0.0,0.0,70,0.00,,,0.00,weatherlink.com 1.10,2013-04-28 01:19:00,
2013-04-27 21:34:00,35.9,28.0,30.35,NNE,14,0.0,0.0,72,0.00,,,0.00,weatherlink.com 1.10,2013-04-28 01:34:00,
2013-04-27 21:49:00,35.0,28.0,30.35,NNE,14,0.0,0.0,74,0.00,,,0.00,weatherlink.com 1.10,2013-04-28 01:49:00,
2013-04-27 22:04:00,34.4,28.0,30.35,NNE,14,0.0,0.0,76,0.00,,,0.00,weatherlink.com 1.10,2013-04-28 02:04:00,
2013-04-27 22:19:00,33.9,27.0,30.35,NNE,14,0.0,0.0,77,0.00,,,0.00,weatherlink.com 1.10,2013-04-28 02:19:00,
2013-04-27 22:34:00,33.3,27.0,30.35,NNE,14,0.0,0.0,79,0.00,,,0.00,weatherlink.com 1.10,2013-04-28 02:34:00,
2013-04-27 22:49:00,32.6,27.0,30.35,NNE,14,0.0,0.0,81,0.00,,,0.00,weatherlink.com 1.10,2013-04-28 02:49:00,
2013-04-27 23:04:00,32.4,28.0,30.35,NNE,14,0.0,0.0,82,0.00,,,0.00,weatherlink.com 1.10,2013-04-28 03:04:00,
2013-04-27 23:19:00,32.1,28.0,30.35,NNE,14,0.0,0.0,83,0.00,,,0.00,weatherlink.com 1.10,2013-04-28 03:19:00,
2013-04-27 23:34:00,31.5,27.0,30.35,NNE,14,0.0,0.0,83,0.00,,,0.00,weatherlink.com 1.10,2013-04-28 03:34:00,
2013-04-27 23:49:00,31.4,27.0,30.35,NNE,14,0.0,0.0,83,0.00,,,0.00,weatherlink.com 1.10,2013-04-28 03:49:00,